| time (UTC) | temp F | wind direction | speed MPH | gust MPH | rain 1hr in | rain 24hr in | rain mn in | humidity % | barometer mb |
| 20260906223052 | 62 | 0 | 0.0 | 3.0 | 0.00 | 0.52 | 0.52 | 85 | 1015.4 |
| 20260906221558 | 61 | 169 | 0.0 | 4.0 | 0.00 | 0.52 | 0.52 | 85 | 1015.4 |
| 20260906220050 | 61 | 199 | 1.0 | 3.0 | 0.00 | 0.52 | 0.52 | 85 | 1015.6 |
| 20260906214553 | 60 | 253 | 1.0 | 4.0 | 0.00 | 0.52 | 0.52 | 87 | 1015.6 |
| 20260906213058 | 60 | 240 | 2.0 | 4.0 | 0.00 | 0.52 | 0.52 | 88 | 1015.6 |
| 20260906211555 | 60 | 183 | 1.0 | 5.0 | 0.00 | 0.52 | 0.52 | 89 | 1015.9 |
| 20260906204559 | 59 | 0 | 0.0 | 5.0 | 0.00 | 0.52 | 0.52 | 93 | 1016.0 |
| 20260906203053 | 58 | 142 | 1.0 | 6.0 | 0.00 | 0.52 | 0.52 | 93 | 1016.0 |
| 20260906201602 | 59 | 229 | 1.0 | 7.0 | 0.00 | 0.52 | 0.52 | 93 | 1015.9 |
| 20260906200059 | 58 | 217 | 1.0 | 6.0 | 0.00 | 0.52 | 0.52 | 94 | 1016.1 |
| 20260906194549 | 58 | 0 | 1.0 | 5.0 | 0.05 | 0.53 | 0.52 | 95 | 1016.2 |
| 20260906193049 | 58 | 150 | 1.0 | 5.0 | 0.26 | 0.53 | 0.52 | 96 | 1016.3 |
| 20260906191558 | 57 | 0 | 2.0 | 6.0 | 0.28 | 0.53 | 0.52 | 96 | 1016.4 |
| 20260906190138 | 57 | 138 | 1.0 | 3.0 | 0.28 | 0.53 | 0.52 | 96 | 1016.5 |
| 20260906184551 | 57 | 148 | 0.0 | 3.0 | 0.22 | 0.48 | 0.46 | 96 | 1016.9 |
| 20260906183057 | 57 | 89 | 1.0 | 5.0 | 0.06 | 0.28 | 0.25 | 96 | 1018.2 |
| 20260906181603 | 56 | 154 | 2.0 | 5.0 | 0.06 | 0.26 | 0.24 | 95 | 1016.8 |
| 20260906180053 | 57 | 157 | 1.0 | 7.0 | 0.06 | 0.26 | 0.24 | 96 | 1016.4 |
| 20260906174549 | 56 | 163 | 0.0 | 3.0 | 0.06 | 0.25 | 0.23 | 96 | 1017.5 |
| 20260906173054 | 56 | 167 | 0.0 | 1.0 | 0.03 | 0.22 | 0.19 | 96 | 1018.1 |
| 20260906171556 | 56 | 0 | 0.0 | 3.0 | 0.03 | 0.20 | 0.18 | 96 | 1018.3 |
| 20260906170052 | 56 | 146 | 1.0 | 3.0 | 0.03 | 0.20 | 0.18 | 96 | 1018.1 |
| 20260906164549 | 56 | 134 | 0.0 | 5.0 | 0.04 | 0.21 | 0.17 | 96 | 1017.2 |
| 20260906163049 | 56 | 151 | 2.0 | 4.0 | 0.03 | 0.20 | 0.16 | 95 | 1018.6 |
| 20260906161554 | 56 | 0 | 1.0 | 4.0 | 0.02 | 0.18 | 0.14 | 95 | 1019.0 |
| 20260906160055 | 56 | 0 | 0.0 | 2.0 | 0.01 | 0.18 | 0.14 | 95 | 1018.8 |
| 20260906154549 | 57 | 135 | 0.0 | 3.0 | 0.00 | 0.20 | 0.12 | 95 | 1018.4 |
| 20260906153048 | 57 | 124 | 2.0 | 6.0 | 0.00 | 0.20 | 0.12 | 95 | 1017.9 |
| 20260906151559 | 57 | 0 | 0.0 | 4.0 | 0.00 | 0.20 | 0.12 | 95 | 1017.8 |
| 20260906150049 | 57 | 0 | 1.0 | 3.0 | 0.00 | 0.20 | 0.12 | 95 | 1018.0 |
| 20260906144548 | 57 | 0 | 0.0 | 2.0 | 0.00 | 0.20 | 0.12 | 95 | 1018.2 |
| 20260906143046 | 56 | 136 | 1.0 | 3.0 | 0.00 | 0.20 | 0.12 | 95 | 1018.5 |
| 20260906141553 | 56 | 129 | 0.0 | 2.0 | 0.00 | 0.20 | 0.12 | 95 | 1018.6 |
| 20260906140051 | 57 | 284 | 0.0 | 4.0 | 0.00 | 0.20 | 0.12 | 95 | 1018.6 |
| 20260906134557 | 56 | 212 | 1.0 | 6.0 | 0.00 | 0.20 | 0.12 | 95 | 1018.1 |
| 20260906133105 | 56 | 236 | 0.0 | 7.0 | 0.00 | 0.20 | 0.12 | 95 | 1018.1 |
| 20260906131600 | 56 | 276 | 4.0 | 9.0 | 0.00 | 0.20 | 0.12 | 96 | 1018.2 |
| 20260906130112 | 55 | 285 | 4.0 | 7.0 | 0.00 | 0.20 | 0.12 | 96 | 1018.1 |
| 20260906124553 | 55 | 0 | 1.0 | 6.0 | 0.00 | 0.19 | 0.11 | 96 | 1018.0 |
| 20260906123049 | 55 | 264 | 1.0 | 5.0 | 0.00 | 0.19 | 0.11 | 96 | 1018.2 |
| 20260906121549 | 55 | 299 | 0.0 | 4.0 | 0.00 | 0.19 | 0.11 | 96 | 1018.4 |
| 20260906120100 | 55 | 229 | 0.0 | 6.0 | 0.00 | 0.19 | 0.11 | 96 | 1018.2 |
| 20260906114551 | 55 | 189 | 1.0 | 4.0 | 0.00 | 0.18 | 0.11 | 96 | 1018.5 |
| 20260906113049 | 56 | 160 | 0.0 | 3.0 | 0.00 | 0.18 | 0.11 | 96 | 1018.8 |
| 20260906111554 | 56 | 136 | 0.0 | 2.0 | 0.00 | 0.18 | 0.11 | 96 | 1019.1 |
| 20260906110100 | 56 | 0 | 0.0 | 0.0 | 0.00 | 0.18 | 0.11 | 95 | 1019.6 |
| 20260906104552 | 56 | 0 | 0.0 | 2.0 | 0.01 | 0.18 | 0.11 | 95 | 1019.6 |
| 20260906103048 | 56 | 119 | 0.0 | 2.0 | 0.01 | 0.18 | 0.11 | 95 | 1019.6 |
| 20260906101547 | 56 | 127 | 0.0 | 1.0 | 0.01 | 0.18 | 0.11 | 95 | 1020.2 |
| 20260906100055 | 56 | 0 | 0.0 | 0.0 | 0.00 | 0.18 | 0.10 | 95 | 1020.2 |
| 20260906094604 | 56 | 0 | 0.0 | 0.0 | 0.00 | 0.17 | 0.09 | 95 | 1020.0 |
| 20260906093100 | 56 | 0 | 0.0 | 1.0 | 0.00 | 0.17 | 0.09 | 95 | 1019.7 |
| 20260906091556 | 56 | 139 | 0.0 | 1.0 | 0.00 | 0.17 | 0.09 | 95 | 1019.8 |
| 20260906090133 | 56 | 0 | 0.0 | 1.0 | 0.01 | 0.17 | 0.09 | 95 | 1020.0 |
| 20260906084611 | 56 | 0 | 0.0 | 1.0 | 0.02 | 0.17 | 0.09 | 95 | 1020.1 |
| 20260906083049 | 56 | 0 | 0.0 | 0.0 | 0.02 | 0.17 | 0.09 | 95 | 1019.9 |
| 20260906081549 | 56 | 140 | 0.0 | 2.0 | 0.03 | 0.17 | 0.09 | 94 | 1020.0 |
| 20260906080105 | 56 | 94 | 0.0 | 8.0 | 0.06 | 0.15 | 0.07 | 94 | 1020.8 |
| 20260906074554 | 56 | 0 | 0.0 | 4.0 | 0.07 | 0.14 | 0.07 | 94 | 1021.2 |
| 20260906073049 | 56 | 0 | 0.0 | 5.0 | 0.07 | 0.14 | 0.07 | 93 | 1020.5 |
| 20260906071548 | 56 | 159 | 2.0 | 5.0 | 0.05 | 0.13 | 0.05 | 92 | 1019.6 |
| 20260906070055 | 57 | 58 | 1.0 | 9.0 | 0.01 | 0.09 | 0.01 | 90 | 1021.8 |
| 20260906064549 | 57 | 48 | 1.0 | 5.0 | 0.00 | 0.07 | 0.00 | 88 | 1021.3 |
| 20260906063100 | 57 | 0 | 0.0 | 2.0 | 0.00 | 0.07 | 0.00 | 88 | 1019.7 |
| 20260906061559 | 57 | 203 | 0.0 | 4.0 | 0.00 | 0.07 | 0.00 | 88 | 1019.3 |
| 20260906060057 | 57 | 122 | 0.0 | 1.0 | 0.00 | 0.07 | 0.00 | 87 | 1019.9 |
| 20260906054556 | 57 | 0 | 0.0 | 3.0 | 0.00 | 0.07 | 0.07 | 86 | 1020.5 |
| 20260906053105 | 57 | 58 | 0.0 | 3.0 | 0.00 | 0.07 | 0.07 | 85 | 1020.5 |
| 20260906051558 | 58 | 0 | 0.0 | 0.0 | 0.00 | 0.07 | 0.07 | 84 | 1020.5 |
| 20260906050055 | 58 | 0 | 0.0 | 0.0 | 0.00 | 0.07 | 0.07 | 82 | 1020.2 |
| 20260906044549 | 58 | 0 | 0.0 | 0.0 | 0.00 | 0.07 | 0.07 | 82 | 1020.1 |
| 20260906043049 | 59 | 0 | 0.0 | 0.0 | 0.00 | 0.07 | 0.07 | 82 | 1019.7 |
| 20260906041558 | 59 | 0 | 0.0 | 0.0 | 0.00 | 0.07 | 0.07 | 82 | 1019.6 |
| 20260906040105 | 59 | 0 | 0.0 | 0.0 | 0.00 | 0.07 | 0.07 | 82 | 1019.4 |
| 20260906034549 | 59 | 0 | 0.0 | 0.0 | 0.00 | 0.07 | 0.07 | 82 | 1019.6 |
| 20260906033059 | 60 | 0 | 0.0 | 0.0 | 0.00 | 0.07 | 0.07 | 80 | 1019.6 |
| 20260906031553 | 60 | 0 | 0.0 | 0.0 | 0.00 | 0.07 | 0.07 | 79 | 1019.4 |
| 20260906030053 | 61 | 0 | 0.0 | 0.0 | 0.00 | 0.07 | 0.07 | 79 | 1019.4 |
| 20260906024609 | 61 | 0 | 0.0 | 0.0 | 0.00 | 0.07 | 0.07 | 77 | 1019.2 |
| 20260906023054 | 62 | 0 | 0.0 | 0.0 | 0.00 | 0.07 | 0.07 | 76 | 1018.9 |
| 20260906021556 | 63 | 0 | 0.0 | 0.0 | 0.00 | 0.07 | 0.07 | 75 | 1018.8 |
| 20260906020055 | 64 | 0 | 0.0 | 0.0 | 0.00 | 0.07 | 0.07 | 73 | 1018.8 |
| 20260906014552 | 65 | 0 | 0.0 | 0.0 | 0.00 | 0.07 | 0.07 | 71 | 1018.7 |
| 20260906013058 | 65 | 0 | 0.0 | 0.0 | 0.00 | 0.07 | 0.07 | 71 | 1018.6 |
| 20260906011557 | 66 | 0 | 0.0 | 0.0 | 0.00 | 0.07 | 0.07 | 69 | 1018.6 |
| 20260906010122 | 66 | 0 | 0.0 | 1.0 | 0.00 | 0.07 | 0.07 | 69 | 1018.7 |
| 20260906004553 | 67 | 0 | 0.0 | 1.0 | 0.00 | 0.07 | 0.07 | 69 | 1018.8 |
| 20260906003048 | 67 | 131 | 0.0 | 2.0 | 0.00 | 0.07 | 0.07 | 69 | 1018.7 |
| 20260906001606 | 67 | 0 | 0.0 | 2.0 | 0.00 | 0.07 | 0.07 | 69 | 1018.8 |
| 20260906000057 | 67 | 0 | 0.0 | 3.0 | 0.00 | 0.07 | 0.07 | 71 | 1018.8 |
| 20260905234551 | 67 | 0 | 0.0 | 4.0 | 0.00 | 0.07 | 0.07 | 71 | 1018.8 |
| 20260905233048 | 67 | 0 | 0.0 | 0.0 | 0.00 | 0.07 | 0.07 | 71 | 1018.8 |
| 20260905231551 | 67 | 0 | 0.0 | 3.0 | 0.00 | 0.07 | 0.07 | 68 | 1018.7 |
| 20260905230108 | 68 | 120 | 1.0 | 3.0 | 0.00 | 0.07 | 0.07 | 69 | 1018.8 |
| 20260905224551 | 68 | 125 | 0.0 | 2.0 | 0.00 | 0.07 | 0.07 | 69 | 1018.7 |